SAS2309 ENGM-ENKB

Flight info

Callsign SAS2309
Flight time 0h 38m
Altitude 30000
Route EVTOG DCT PIGED DCT VEPUL
Aircraft A20N/M-SDE2E3FGHIRWXY/LB1

Departure

Time 2026-04-14 16:00
Airport Oslo-Gardermoen International Airport (ENGM)

Arrival

Time 2026-04-14 16:38
Airport Kristiansund Airport, Kvernberget (ENKB)
Time Latitude Longitude Altitude Speed Heading
2026-04-14 15:45 60.19602 11.10183 682 ft 0 kts 287°
2026-04-14 15:50 60.19600 11.10198 678 ft 2 kts 287°
2026-04-14 15:50 60.19595 11.10231 679 ft 2 kts 287°
2026-04-14 15:51 60.19590 11.10263 682 ft 2 kts 287°
2026-04-14 15:51 60.19589 11.10271 682 ft 0 kts 287°
2026-04-14 15:53 60.19595 11.10262 679 ft 1 kts 332°
2026-04-14 15:53 60.19605 11.10273 680 ft 2 kts 43°
2026-04-14 15:54 60.19639 11.10406 682 ft 9 kts 48°
2026-04-14 15:54 60.19702 11.10467 682 ft 12 kts 17°
2026-04-14 15:54 60.19790 11.10520 680 ft 15 kts 17°
2026-04-14 15:55 60.19879 11.10570 682 ft 7 kts 15°
2026-04-14 15:55 60.19931 11.10599 683 ft 8 kts 19°
2026-04-14 15:55 60.19946 11.10706 684 ft 10 kts 102°
2026-04-14 15:55 60.19930 11.10861 684 ft 13 kts 102°
2026-04-14 15:56 60.19904 11.11055 684 ft 16 kts 108°
2026-04-14 15:56 60.19866 11.11282 682 ft 18 kts 108°
2026-04-14 15:56 60.19841 11.11468 685 ft 12 kts 92°
2026-04-14 15:56 60.19907 11.11560 686 ft 14 kts 13°
2026-04-14 15:57 60.20004 11.11618 688 ft 15 kts 18°
2026-04-14 15:57 60.20116 11.11681 687 ft 19 kts 15°
2026-04-14 15:57 60.20174 11.11788 688 ft 12 kts 96°
2026-04-14 15:57 60.20160 11.11912 689 ft 9 kts 103°
2026-04-14 15:58 60.20139 11.12054 686 ft 12 kts 107°
2026-04-14 15:58 60.20089 11.12206 689 ft 15 kts 148°
2026-04-14 15:58 60.20041 11.12202 688 ft 0 kts 195°
2026-04-14 15:59 60.19966 11.12159 687 ft 42 kts 195°
2026-04-14 15:59 60.19452 11.11867 688 ft 110 kts 197°
2026-04-14 15:59 60.18541 11.11339 681 ft 161 kts 190°
2026-04-14 16:00 60.17456 11.10588 1234 ft 165 kts 194°
2026-04-14 16:00 60.16363 11.09920 1976 ft 165 kts 190°
2026-04-14 16:00 60.15196 11.09283 2362 ft 185 kts 190°
2026-04-14 16:00 60.13875 11.08575 2743 ft 206 kts 191°
2026-04-14 16:01 60.12405 11.08063 3237 ft 222 kts 182°
2026-04-14 16:01 60.10857 11.07738 4063 ft 225 kts 182°
2026-04-14 16:01 60.09298 11.07411 4999 ft 226 kts 181°
2026-04-14 16:01 60.07724 11.07075 5884 ft 228 kts 182°
2026-04-14 16:02 60.06179 11.06131 6694 ft 241 kts 206°
2026-04-14 16:02 60.04951 11.03739 7457 ft 256 kts 233°
2026-04-14 16:02 60.04328 11.00346 8269 ft 268 kts 260°
2026-04-14 16:02 60.04549 10.96604 9100 ft 278 kts 290°
2026-04-14 16:03 60.05629 10.93370 9919 ft 283 kts 311°
2026-04-14 16:03 60.06950 10.90434 10684 ft 285 kts 311°
2026-04-14 16:03 60.08286 10.87481 11392 ft 288 kts 311°
2026-04-14 16:03 60.09636 10.84491 12107 ft 291 kts 310°
2026-04-14 16:04 60.10980 10.81491 12781 ft 294 kts 309°
2026-04-14 16:04 60.12367 10.78376 13482 ft 298 kts 309°
2026-04-14 16:04 60.13750 10.75255 14158 ft 301 kts 308°
2026-04-14 16:04 60.15126 10.72137 14741 ft 304 kts 308°
2026-04-14 16:05 60.16535 10.68938 15322 ft 308 kts 308°
2026-04-14 16:05 60.17963 10.65691 15899 ft 311 kts 308°
2026-04-14 16:05 60.19404 10.62414 16483 ft 315 kts 308°
2026-04-14 16:05 60.20865 10.59091 17070 ft 319 kts 308°
2026-04-14 16:06 60.22421 10.55857 17661 ft 324 kts 316°
2026-04-14 16:06 60.24207 10.53034 18218 ft 330 kts 324°
2026-04-14 16:06 60.26200 10.50703 18735 ft 334 kts 334°
2026-04-14 16:06 60.28357 10.48902 19215 ft 337 kts 339°
2026-04-14 16:07 60.30564 10.47217 19694 ft 341 kts 339°
2026-04-14 16:07 60.32789 10.45509 20186 ft 344 kts 339°
2026-04-14 16:07 60.35030 10.43783 20666 ft 346 kts 339°
2026-04-14 16:07 60.37287 10.42035 21124 ft 349 kts 339°
2026-04-14 16:08 60.39556 10.40225 21566 ft 352 kts 334°
2026-04-14 16:08 60.41764 10.38048 21999 ft 354 kts 332°
2026-04-14 16:08 60.43963 10.35751 22453 ft 357 kts 331°
2026-04-14 16:08 60.46183 10.33362 22736 ft 368 kts 330°
2026-04-14 16:09 60.48487 10.30851 22878 ft 384 kts 330°
2026-04-14 16:09 60.50889 10.28237 23019 ft 399 kts 330°
2026-04-14 16:09 60.53386 10.25532 23165 ft 414 kts 330°
2026-04-14 16:09 60.55980 10.22734 23308 ft 429 kts 331°
2026-04-14 16:10 60.58660 10.19852 23457 ft 443 kts 331°
2026-04-14 16:10 60.61411 10.16895 23814 ft 451 kts 331°
2026-04-14 16:10 60.64202 10.13897 24216 ft 455 kts 331°
2026-04-14 16:10 60.67005 10.10884 24640 ft 458 kts 330°
2026-04-14 16:11 60.69835 10.07831 25085 ft 460 kts 330°
2026-04-14 16:11 60.72670 10.04756 25529 ft 463 kts 330°
2026-04-14 16:11 60.75521 10.01649 25959 ft 466 kts 330°
2026-04-14 16:11 60.78344 9.98561 26367 ft 468 kts 330°
2026-04-14 16:12 60.81227 9.95406 26766 ft 471 kts 330°
2026-04-14 16:12 60.84125 9.92234 27156 ft 473 kts 329°
2026-04-14 16:12 60.87042 9.89039 27566 ft 476 kts 329°
2026-04-14 16:12 60.89966 9.85830 27957 ft 479 kts 329°
2026-04-14 16:13 60.92912 9.82584 28340 ft 482 kts 329°
2026-04-14 16:13 60.95872 9.79317 28727 ft 484 kts 329°
2026-04-14 16:13 60.98848 9.76026 29098 ft 487 kts 329°
2026-04-14 16:13 61.01843 9.72708 29459 ft 489 kts 329°
2026-04-14 16:14 61.04843 9.69377 29817 ft 492 kts 329°
2026-04-14 16:14 61.07868 9.66009 30178 ft 494 kts 328°
2026-04-14 16:14 61.10891 9.62638 30305 ft 491 kts 328°
2026-04-14 16:15 61.16854 9.55972 30317 ft 485 kts 328°
2026-04-14 16:15 61.22783 9.49303 30318 ft 484 kts 328°
2026-04-14 16:16 61.28658 9.42670 30322 ft 484 kts 328°
2026-04-14 16:16 61.34582 9.35967 30325 ft 484 kts 328°
2026-04-14 16:17 61.40494 9.29236 30318 ft 484 kts 328°
2026-04-14 16:17 61.46400 9.22460 30319 ft 484 kts 327°
2026-04-14 16:18 61.52300 9.15684 30312 ft 484 kts 327°
2026-04-14 16:18 61.58209 9.08885 30317 ft 484 kts 327°
2026-04-14 16:19 61.64101 9.02058 30308 ft 484 kts 327°
2026-04-14 16:19 61.69988 8.95200 30314 ft 484 kts 327°
2026-04-14 16:20 61.75836 8.88358 30309 ft 484 kts 327°
2026-04-14 16:20 61.81720 8.81443 30289 ft 484 kts 326°
2026-04-14 16:20 61.84670 8.77964 30144 ft 485 kts 326°
2026-04-14 16:21 61.87616 8.74479 28727 ft 492 kts 327°
2026-04-14 16:21 61.90649 8.70871 27440 ft 502 kts 327°
2026-04-14 16:21 61.93657 8.67300 26974 ft 489 kts 327°
2026-04-14 16:21 61.96612 8.63800 26294 ft 484 kts 327°
2026-04-14 16:22 61.99548 8.60340 25657 ft 479 kts 328°
2026-04-14 16:22 62.02447 8.56931 25011 ft 474 kts 328°
2026-04-14 16:22 62.05314 8.53551 24378 ft 470 kts 328°
2026-04-14 16:22 62.08167 8.50172 23724 ft 467 kts 328°
2026-04-14 16:23 62.10993 8.46813 23053 ft 462 kts 328°
2026-04-14 16:23 62.13784 8.43489 22478 ft 457 kts 328°
2026-04-14 16:23 62.16544 8.40194 21888 ft 452 kts 328°
2026-04-14 16:23 62.19276 8.36920 21331 ft 447 kts 328°
2026-04-14 16:24 62.21980 8.33702 20891 ft 441 kts 329°
2026-04-14 16:24 62.24647 8.30659 20770 ft 429 kts 330°
2026-04-14 16:24 62.27294 8.27733 20241 ft 428 kts 330°
2026-04-14 16:24 62.29956 8.24835 19662 ft 429 kts 331°
2026-04-14 16:25 62.32617 8.21945 19087 ft 430 kts 331°
2026-04-14 16:25 62.35282 8.19028 18473 ft 430 kts 330°
2026-04-14 16:25 62.37914 8.16120 17823 ft 430 kts 330°
2026-04-14 16:25 62.40568 8.13165 17187 ft 428 kts 330°
2026-04-14 16:26 62.43201 8.10211 16702 ft 423 kts 330°
2026-04-14 16:26 62.45804 8.07281 16039 ft 421 kts 330°
2026-04-14 16:26 62.48372 8.04388 15611 ft 412 kts 330°
2026-04-14 16:26 62.50897 8.01540 15046 ft 408 kts 330°
2026-04-14 16:27 62.53398 7.98714 14492 ft 402 kts 330°
2026-04-14 16:27 62.55863 7.95935 13926 ft 397 kts 330°
2026-04-14 16:27 62.58281 7.93211 13010 ft 386 kts 330°
2026-04-14 16:27 62.60649 7.90537 11983 ft 378 kts 330°
2026-04-14 16:28 62.62913 7.87972 11427 ft 359 kts 330°
2026-04-14 16:28 62.65078 7.85515 10888 ft 343 kts 329°
2026-04-14 16:28 62.67114 7.83199 10713 ft 318 kts 329°
2026-04-14 16:28 62.69028 7.81015 10317 ft 306 kts 329°
2026-04-14 16:29 62.70882 7.78889 9951 ft 297 kts 329°
2026-04-14 16:29 62.72718 7.76775 9812 ft 299 kts 329°
2026-04-14 16:29 62.74556 7.74657 9675 ft 299 kts 329°
2026-04-14 16:29 62.76390 7.72544 9537 ft 298 kts 329°
2026-04-14 16:30 62.78223 7.70434 9355 ft 299 kts 329°
2026-04-14 16:30 62.80065 7.68316 8913 ft 300 kts 329°
2026-04-14 16:30 62.81284 7.66916 8718 ft 298 kts 329°
2026-04-14 16:30 62.83719 7.64106 8194 ft 298 kts 329°
2026-04-14 16:31 62.84946 7.62689 8092 ft 292 kts 329°
2026-04-14 16:31 62.87241 7.60042 7923 ft 269 kts 329°
2026-04-14 16:31 62.88844 7.58188 7775 ft 252 kts 329°
2026-04-14 16:31 62.90367 7.56417 7349 ft 248 kts 329°
2026-04-14 16:32 62.91917 7.54606 6677 ft 256 kts 329°
2026-04-14 16:32 62.92989 7.53352 6186 ft 261 kts 329°
2026-04-14 16:32 62.94609 7.51458 5478 ft 267 kts 330°
2026-04-14 16:32 62.96237 7.49556 5067 ft 260 kts 330°
2026-04-14 16:33 62.97765 7.47771 4929 ft 244 kts 330°
2026-04-14 16:33 62.99262 7.46019 4332 ft 245 kts 330°
2026-04-14 16:33 63.00725 7.44309 4164 ft 231 kts 330°
2026-04-14 16:33 63.02126 7.42702 4069 ft 225 kts 335°
2026-04-14 16:34 63.03648 7.42249 3980 ft 225 kts 12°
2026-04-14 16:34 63.04998 7.43828 3773 ft 222 kts 49°
2026-04-14 16:34 63.05687 7.46765 3611 ft 211 kts 76°
2026-04-14 16:34 63.06136 7.49779 3399 ft 207 kts 74°
2026-04-14 16:35 63.06605 7.52799 2991 ft 208 kts 74°
2026-04-14 16:35 63.07071 7.55792 2678 ft 204 kts 74°
2026-04-14 16:35 63.07525 7.58713 2408 ft 199 kts 74°
2026-04-14 16:35 63.07968 7.61575 2138 ft 195 kts 74°
2026-04-14 16:36 63.08404 7.64395 1868 ft 192 kts 74°
2026-04-14 16:36 63.08831 7.67152 1597 ft 185 kts 75°
2026-04-14 16:36 63.09229 7.69732 1357 ft 170 kts 74°
2026-04-14 16:36 63.09596 7.72110 1107 ft 157 kts 75°
2026-04-14 16:37 63.09938 7.74331 871 ft 147 kts 75°
2026-04-14 16:37 63.10252 7.76379 678 ft 136 kts 75°
2026-04-14 16:37 63.10552 7.78333 491 ft 132 kts 75°
2026-04-14 16:37 63.10846 7.80258 317 ft 132 kts 75°
2026-04-14 16:38 63.11133 7.82142 196 ft 119 kts 72°
2026-04-14 16:38 63.11244 7.82888 205 ft 11 kts 70°
2026-04-14 16:38 63.11295 7.83174 197 ft 11 kts 68°
2026-04-14 16:38 63.11336 7.83260 193 ft 9 kts 354°
2026-04-14 16:39 63.11371 7.83238 200 ft 5 kts 343°
2026-04-14 16:39 63.11413 7.83192 198 ft 8 kts 309°
2026-04-14 16:39 63.11403 7.83060 195 ft 10 kts 250°
2026-04-14 16:39 63.11373 7.82888 196 ft 14 kts 248°
2026-04-14 16:40 63.11339 7.82756 196 ft 11 kts 226°
2026-04-14 16:40 63.11324 7.82645 195 ft 8 kts 310°
2026-04-14 16:40 63.11329 7.82639 194 ft 1 kts 330°
2026-04-14 16:40 63.11346 7.82621 197 ft 0 kts 337°